Data for 08/01/2017

Time Sea-Level Adjusted Pressure Absolute Pressure Temperature Relative Humidity Dew Point   
(mb) (inHg) (mb) (inHg) (C) (F) (%) (C) (F)
00:05 1026 30.3 855 25.25 23.3 74 22 0.5 32.8
00:10 1026 30.3 855 25.25 23.3 74 22 0.4 32.8
00:15 1026 30.3 855 25.25 23.4 74.1 22 0.6 33
00:20 1026 30.3 855 25.25 23.2 73.8 22 0.6 33.2
00:25 1026 30.3 855 25.25 23.1 73.6 23 0.9 33.7
00:30 1026 30.3 855 25.25 23 73.4 23 0.7 33.3
00:35 1026 30.3 855 25.25 22.9 73.3 23 0.6 33.2
00:40 1026 30.3 855 25.25 22.8 73 23 0.7 33.2
00:45 1026 30.3 855 25.25 22.8 73 23 0.6 33
00:50 1026 30.3 855 25.25 22.7 72.8 23 0.7 33.3
00:55 1026 30.3 855 25.25 22.6 72.7 23 0.6 33
01:00 1026 30.3 855 25.25 22.6 72.7 23 0.6 33.1
01:05 1026 30.3 855 25.25 22.5 72.5 23 0.5 32.9
01:10 1026 30.3 855 25.25 22.5 72.5 23 0.6 33.1
01:15 1026 30.3 855 25.25 22.4 72.4 23 0.7 33.3
01:20 1026 30.3 855 25.25 22.3 72.2 23 0.5 33
01:25 1026 30.3 855 25.25 22.3 72.1 23 0.6 33.1
01:30 1026 30.3 855 25.25 22.2 72 24 0.8 33.4
01:35 1026 30.3 855 25.25 22.1 71.7 24 0.5 32.9
01:40 1026 30.3 855 25.25 22.1 71.7 24 0.5 33
01:45 1026 30.3 855 25.25 22 71.7 24 0.6 33
01:50 1026 30.3 855 25.25 21.9 71.4 24 0.4 32.8
01:55 1026 30.3 855 25.25 21.9 71.4 24 0.4 32.7
02:00 1026 30.3 855 25.25 21.9 71.3 24 0.5 32.9
02:05 1026 30.3 855 25.25 21.8 71.2 24 0.8 33.4
02:10 1026 30.3 855 25.25 21.7 71 24 0.3 32.5
02:15 1026 30.3 855 25.25 21.8 71.2 25 0.9 33.6
02:20 1026 30.3 855 25.25 21 69.8 27 1.5 34.7
02:25 1026 30.3 855 25.25 20.1 68.1 28 1.3 34.3
02:30 1026 30.3 855 25.25 19.2 66.5 31 2 35.5
02:35 1026 30.3 855 25.25 18.7 65.7 31 1.4 34.6
02:40 1026 30.3 855 25.25 18.7 65.7 31 1.3 34.3
02:45 1026 30.3 855 25.25 18.8 65.8 31 1.5 34.8
02:50 1026 30.3 855 25.25 18.7 65.6 30 1.1 34
02:55 1026 30.3 855 25.25 18.8 65.9 30 1.1 33.9
03:00 1026 30.3 855 25.25 18.9 66.1 29 0.9 33.6
03:05 1026 30.3 855 25.25 19 66.1 30 1.2 34.1
03:10 1026 30.3 855 25.25 18.8 65.8 32 1.8 35.2
03:15 1026 30.3 855 25.25 18.3 65 33 1.9 35.5
03:20 1026 30.3 855 25.25 17.9 64.3 34 2 35.6
03:25 1026 30.3 855 25.25 17.8 64 34 1.6 34.9
03:30 1026 30.3 855 25.25 17.6 63.7 35 2.1 35.9
03:35 1026 30.3 855 25.25 17 62.5 37 2.2 35.9
03:40 1026 30.3 855 25.25 16.7 62 37 2 35.7
03:45 1026 30.3 855 25.25 16.5 61.8 38 2.2 35.9
03:50 1026 30.3 855 25.25 16.3 61.4 38 2.1 35.8
03:55 1026 30.3 855 25.25 16.2 61.2 38 2 35.6
04:00 1026 30.3 855 25.25 16.2 61.1 37 1.8 35.2
04:05 1026 30.3 855 25.25 16.3 61.4 37 1.6 35
04:10 1026 30.3 855 25.25 16.4 61.5 37 1.9 35.3
04:15 1026 30.3 855 25.25 16.3 61.3 37 1.9 35.3
04:20 1026 30.3 855 25.25 16 60.8 39 2 35.7
04:25 1026 30.3 855 25.25 15.9 60.6 38 1.8 35.2
04:30 1026 30.3 855 25.25 16 60.8 38 1.9 35.5
04:35 1026 30.3 855 25.25 15.9 60.5 40 2.3 36.2
04:40 1026 30.3 855 25.25 15.8 60.4 38 1.7 35.1
04:45 1026 30.3 855 25.25 16.2 61.1 38 2 35.5
04:50 1026 30.3 855 25.25 16.1 60.9 39 2.3 36.2
04:55 1026 30.3 855 25.25 16.1 60.9 39 2.2 36
05:00 1026 30.3 855 25.25 15.9 60.6 40 2.5 36.5
05:05 1026 30.3 855 25.25 15.7 60.2 40 2.2 36
05:10 1026 30.3 855 25.25 15.7 60.3 37 1.3 34.4
05:15 1026 30.3 855 25.25 15.9 60.7 38 1.6 34.9
05:20 1026 30.3 855 25.25 16.3 61.4 37 1.8 35.3
05:25 1026 30.3 855 25.25 16.2 61.1 38 2 35.6
05:30 1026 30.3 855 25.25 16.3 61.3 37 1.8 35.2
05:35 1026 30.3 855 25.25 16.7 62.1 36 1.8 35.3
05:40 1026 30.3 855 25.25 16.8 62.2 36 1.7 35.1
05:45 1026 30.3 855 25.25 16.9 62.5 34 1.1 34
05:50 1026 30.3 855 25.25 17.1 62.8 36 2 35.7
05:55 1026 30.3 855 25.25 16.8 62.3 37 2 35.6
06:00 1026 30.3 855 25.25 16.9 62.4 37 2.1 35.8
06:05 1026 30.3 855 25.25 16.9 62.5 36 2 35.6
06:10 1026 30.3 855 25.25 17.1 62.8 36 2.2 35.9
06:15 1026 30.3 855 25.25 17.3 63.2 35 1.9 35.5
06:20 1026 30.3 855 25.25 17.6 63.7 36 2.7 36.8
06:25 1026 30.3 855 25.25 17.7 63.9 36 2.4 36.3
06:30 1026 30.3 855 25.25 17.7 63.9 36 2.6 36.8
06:35 1026 30.3 855 25.25 17.6 63.6 38 3.4 38.1
06:40 1026 30.3 855 25.25 17.5 63.5 38 3.1 37.5
06:45 1026 30.3 855 25.25 17.7 63.8 39 3.5 38.3
06:50 1026 30.3 855 25.25 18.2 64.7 36 3 37.4
06:55 1026 30.3 855 25.25 18.9 65.9 33 2.5 36.5
07:00 1026 30.3 855 25.25 19.4 67 33 2.8 37.1
07:05 1026 30.3 855 25.25 19.7 67.5 33 3 37.4
07:10 1026 30.3 855 25.25 20 68.1 32 3 37.5
07:15 1026 30.3 855 25.25 20 68 33 3.2 37.8
07:20 1026 30.3 855 25.25 19.9 67.8 33 3.5 38.3
07:25 1026 30.3 855 25.25 19.8 67.6 33 3.3 37.9
07:30 1026 30.3 855 25.25 20.1 68.1 35 4.3 39.8
07:35 1026 30.3 855 25.25 20.6 69.1 31 3.3 37.9
07:40 1026 30.3 855 25.25 21 69.8 29 2.5 36.6
07:45 1026 30.3 855 25.25 21.5 70.8 29 3 37.3
07:50 1026 30.3 855 25.25 22.2 71.9 28 3 37.4
07:55 1026 30.3 855 25.25 22.4 72.4 28 3.4 38
08:00 1026 30.3 855 25.25 22.6 72.7 28 3.6 38.5
08:05 1026 30.3 855 25.25 22.3 72.2 29 3.7 38.6
08:10 1026 30.3 855 25.25 22.6 72.7 29 3.9 39
08:15 1026 30.3 855 25.25 23 73.4 28 3.7 38.7
08:20 1026 30.3 855 25.25 23.3 74 27 3.6 38.5
08:25 1026 30.3 855 25.25 23.1 73.5 27 3.5 38.2
08:30 1026 30.3 855 25.25 22.9 73.1 28 3.4 38.2
08:35 1026 30.3 855 25.25 23.2 73.7 29 4.5 40
08:40 1026 30.3 855 25.25 22.6 72.6 31 4.6 40.3
08:45 1026 30.3 855 25.25 22.4 72.3 29 3.7 38.7
08:50 1026 30.3 855 25.25 22.5 72.5 29 3.8 38.9
08:55 1026 30.3 855 25.25 22.7 72.8 29 3.9 39.1
09:00 1026 30.3 855 25.25 22.6 72.7 27 3.1 37.6
09:05 1026 30.3 855 25.25 23.5 74.3 25 2.7 36.8
09:10 1026 30.3 855 25.25 23 73.3 25 2.3 36.1
09:15 1026 30.3 855 25.25 22.9 73.2 26 2.6 36.7
09:20 1026 30.3 855 25.25 23.8 74.8 25 3 37.3
09:25 1026 30.3 855 25.25 23.5 74.2 24 2 35.6
09:30 1026 30.3 855 25.25 23.9 74.9 26 3.2 37.7
09:35 1026 30.3 855 25.25 24.2 75.6 22 1.5 34.8
09:40 1026 30.3 855 25.25 24.2 75.5 23 2 35.5
09:45 1026 30.3 855 25.25 24.7 76.4 21 1.4 34.4
09:50 1026 30.3 855 25.25 25.8 78.4 21 1.8 35.3
09:55 1025 30.27 855 25.25 26.3 79.3 21 2.4 36.3
10:00 1025 30.27 855 25.25 26.1 79 21 2.7 36.8
10:05 1025 30.27 855 25.25 25.4 77.7 21 2 35.5
10:10 1025 30.27 855 25.25 25.8 78.5 22 2.8 37.1
10:15 1025 30.27 855 25.25 26.7 80.1 20 2.3 36.1
10:20 1025 30.27 855 25.25 26.7 80 20 2.3 36.2
10:25 1025 30.27 854 25.22 27 80.7 20 2.8 37
10:30 1025 30.27 854 25.22 27.3 81.2 20 2.5 36.4
10:35 1025 30.27 854 25.22 27.8 82 20 2.9 37.2
10:40 1025 30.27 854 25.22 27.5 81.5 22 3.9 39
10:45 1025 30.27 854 25.22 26.7 80.1 23 3.9 38.9
10:50 1025 30.27 854 25.22 26.6 79.8 23 3.8 38.9
10:55 1025 30.27 854 25.22 27.1 80.7 22 3.7 38.7
11:00 1025 30.27 854 25.22 27.8 82 20 2.9 37.2
11:05 1025 30.27 854 25.22 27.9 82.2 20 3 37.5
11:10 1025 30.27 854 25.22 27.8 82 20 3.2 37.8
11:15 1025 30.27 854 25.22 27.9 82.3 21 3.8 38.8
11:20 1025 30.27 854 25.22 28.1 82.5 19 2.7 36.8
11:25 1025 30.27 854 25.22 28.1 82.6 19 2.9 37.3
11:30 1025 30.27 854 25.22 28.1 82.6 20 3.1 37.5
11:35 1025 30.27 854 25.22 28.1 82.5 20 3 37.4
11:40 1025 30.27 854 25.22 28.3 83 20 3.7 38.6
11:45 1025 30.27 854 25.22 29.6 85.3 18 3 37.3
11:50 1025 30.27 854 25.22 29.3 84.8 18 2.5 36.5
11:55 1025 30.27 854 25.22 29.5 85 17 1.9 35.4
12:00 1025 30.27 854 25.22 29.6 85.3 15 1 33.8
12:05 1025 30.27 854 25.22 29.7 85.5 15 0.4 32.7
12:10 1025 30.27 854 25.22 29.8 85.6 15 1 33.7
12:15 1025 30.27 854 25.22 30.1 86.1 15 0.9 33.7
12:20 1025 30.27 854 25.22 30.1 86.1 17 2.8 37.1
12:25 1025 30.27 854 25.22 30.2 86.3 15 0.7 33.2
12:30 1025 30.27 854 25.22 30.3 86.5 15 1.4 34.6
12:35 1025 30.27 854 25.22 30 86.1 15 1 33.8
12:40 1024 30.24 854 25.22 30.1 86.2 14 0.4 32.8
12:45 1024 30.24 854 25.22 30.1 86.2 15 0.5 33
12:50 1024 30.24 854 25.22 30.1 86.2 14 0 32
12:55 1024 30.24 854 25.22 30.1 86.1 14 -0.2 31.7
13:00 1024 30.24 854 25.22 30.3 86.6 14 0.4 32.7
13:05 1024 30.24 854 25.22 30.6 87 14 -0 32
13:10 1024 30.24 853 25.19 30.7 87.2 15 1.2 34.2
13:15 1024 30.24 853 25.19 30.2 86.4 14 -0.1 31.9
13:20 1024 30.24 853 25.19 29.6 85.2 15 0.2 32.4
13:25 1024 30.24 853 25.19 30.2 86.4 13 -0.5 31.1
13:30 1024 30.24 853 25.19 30.9 87.6 13 -0.5 31.1
13:35 1024 30.24 853 25.19 31.2 88.2 14 0.6 33
13:40 1024 30.24 853 25.19 31.2 88.1 13 -0.6 30.9
13:45 1024 30.24 853 25.19 31.2 88.1 13 -0.5 31.1
13:50 1024 30.24 853 25.19 31.2 88.1 11 -2.2 28.1
13:55 1024 30.24 853 25.19 31.8 89.2 11 -2 28.3
14:00 1024 30.24 853 25.19 31.9 89.5 11 -2.4 27.7
14:05 1024 30.24 853 25.19 31.6 88.9 10 -3.7 25.3
14:10 1024 30.24 853 25.19 31 87.7 10 -4.1 24.7
14:15 1024 30.24 853 25.19 31 87.8 10 -3.9 25
14:20 1024 30.24 853 25.19 30.8 87.5 11 -3.3 26.1
14:25 1024 30.24 853 25.19 31.4 88.5 10 -3.5 25.7
14:30 1024 30.24 853 25.19 31.8 89.3 10 -3.5 25.6
14:35 1024 30.24 853 25.19 31.9 89.3 9 -4 24.8
14:40 1023 30.21 853 25.19 31 87.8 10 -3.7 25.3
14:45 1024 30.24 853 25.19 31.3 88.3 10 -3.5 25.7
14:50 1024 30.24 853 25.19 31.6 88.9 10 -3.5 25.7
14:55 1023 30.21 853 25.19 31 87.8 11 -2.8 27
15:00 1023 30.21 853 25.19 31.2 88.1 11 -2.6 27.4
15:05 1023 30.21 853 25.19 30.7 87.2 10 -3.6 25.6
15:10 1023 30.21 853 25.19 31.1 87.9 10 -3.5 25.8
15:15 1023 30.21 853 25.19 31.7 89.1 11 -2.6 27.4
15:20 1023 30.21 853 25.19 32 89.6 10 -2.6 27.2
15:25 1023 30.21 853 25.19 31.9 89.4 10 -3.1 26.5
15:30 1023 30.21 852 25.16 32.1 89.8 10 -3.2 26.3
15:35 1023 30.21 852 25.16 30.9 87.6 10 -3.6 25.5
15:40 1023 30.21 852 25.16 30.7 87.2 10 -4.1 24.6
15:45 1023 30.21 852 25.16 31.4 88.5 10 -3.9 24.9
15:50 1023 30.21 852 25.16 31 87.8 10 -3.7 25.4
15:55 1023 30.21 852 25.16 30.7 87.2 10 -3.8 25.2
16:00 1023 30.21 852 25.16 30.7 87.2 10 -4.1 24.7
16:05 1023 30.21 852 25.16 31 87.9 10 -3.4 25.9
16:10 1023 30.21 852 25.16 31.9 89.5 10 -3.4 25.9
16:15 1023 30.21 852 25.16 32.2 89.9 10 -2.7 27.2
16:20 1023 30.21 852 25.16 32.1 89.8 11 -2.1 28.2
16:25 1023 30.21 852 25.16 32 89.6 10 -2.6 27.4
16:30 1023 30.21 852 25.16 31.3 88.3 10 -3.6 25.5
16:35 1023 30.21 852 25.16 31.2 88.2 11 -3 26.7
16:40 1023 30.21 852 25.16 31.7 89 9 -4.2 24.5
16:45 1023 30.21 852 25.16 31.4 88.5 10 -3.7 25.3
16:50 1023 30.21 852 25.16 31.4 88.5 10 -3.1 26.5
16:55 1023 30.21 852 25.16 30.8 87.5 10 -4.2 24.5
17:00 1023 30.21 852 25.16 30.8 87.5 10 -3.7 25.3
17:05 1023 30.21 852 25.16 31.1 88 11 -3 26.5
17:10 1023 30.21 852 25.16 31.2 88.1 10 -3.1 26.5
17:15 1023 30.21 852 25.16 31.1 87.9 11 -2.3 27.9
17:20 1023 30.21 852 25.16 31.3 88.4 10 -3.4 25.8
17:25 1023 30.21 852 25.16 31.2 88.1 10 -4 24.8
17:30 1023 30.21 852 25.16 30.9 87.7 10 -3.4 25.8
17:35 1023 30.21 852 25.16 30.9 87.5 10 -3.3 26
17:40 1023 30.21 852 25.16 30.8 87.5 11 -2.5 27.6
17:45 1023 30.21 852 25.16 30.7 87.3 11 -2.9 26.8
17:50 1023 30.21 852 25.16 30.5 86.9 12 -2.1 28.3
17:55 1023 30.21 852 25.16 30 86 12 -1.9 28.6
18:00 1023 30.21 852 25.16 29.4 84.9 13 -1.9 28.6
18:05 1023 30.21 852 25.16 29.1 84.4 14 -1 30.2
18:10 1023 30.21 852 25.16 28.9 84 13 -1.5 29.3
18:15 1023 30.21 852 25.16 28.6 83.5 14 -1.2 29.8
18:20 1023 30.21 852 25.16 28.3 83 14 -1.3 29.7
18:25 1023 30.21 852 25.16 28 82.3 15 -1.2 29.9
18:30 1023 30.21 852 25.16 27.9 82.3 14 -1.4 29.4
18:35 1023 30.21 852 25.16 27.9 82.2 14 -1.5 29.3
18:40 1023 30.21 852 25.16 27.8 82.1 14 -2.2 28
18:45 1023 30.21 852 25.16 27.8 82.1 14 -1.9 28.5
18:50 1023 30.21 852 25.16 27.7 81.9 13 -2.6 27.3
18:55 1023 30.21 852 25.16 27.7 81.8 13 -2.5 27.5
19:00 1023 30.21 852 25.16 27.6 81.6 14 -2 28.4
19:05 1023 30.21 853 25.19 27.5 81.4 14 -2.1 28.2
19:10 1023 30.21 853 25.19 27.3 81.1 18 1.2 34.1
19:15 1023 30.21 853 25.19 27.2 80.9 15 -1.4 29.5
19:20 1024 30.24 853 25.19 27.1 80.8 17 0.1 32.2
19:25 1024 30.24 853 25.19 26.8 80.2 17 0 32.1
19:30 1024 30.24 853 25.19 26 78.8 19 1 33.9
19:35 1024 30.24 853 25.19 25.5 77.8 19 0.4 32.8
19:40 1024 30.24 853 25.19 25.4 77.7 19 0.5 33
19:45 1024 30.24 853 25.19 25.4 77.7 19 0.3 32.5
19:50 1024 30.24 853 25.19 25.5 77.9 18 -0.2 31.6
19:55 1024 30.24 853 25.19 25.6 78.1 19 0.3 32.6
20:00 1024 30.24 853 25.19 25.3 77.5 21 1.4 34.6
20:05 1024 30.24 853 25.19 24.1 75.5 27 4.1 39.3
20:10 1024 30.24 853 25.19 23.1 73.6 27 3.4 38.1
20:15 1024 30.24 853 25.19 23.3 74 26 2.9 37.2
20:20 1024 30.24 853 25.19 22.9 73.1 28 3.6 38.4
20:25 1024 30.24 853 25.19 22.3 72.2 31 4.7 40.4
20:30 1024 30.24 853 25.19 22.3 72.2 25 1.7 35
20:35 1024 30.24 854 25.22 22.8 73.1 25 2.2 35.9
20:40 1024 30.24 854 25.22 23.2 73.8 22 0.7 33.3
20:45 1025 30.27 854 25.22 23.6 74.5 26 3.1 37.6
20:50 1025 30.27 854 25.22 23.2 73.8 24 1.5 34.8
20:55 1025 30.27 854 25.22 23.7 74.6 20 -0.4 31.3
21:00 1025 30.27 854 25.22 23.8 74.8 22 0.8 33.4
21:05 1025 30.27 854 25.22 23.6 74.5 20 -0.2 31.6
21:10 1025 30.27 854 25.22 24.2 75.5 19 -0.8 30.5
21:15 1025 30.27 854 25.22 24 75.3 19 -1 30.2
21:20 1025 30.27 854 25.22 23.7 74.7 23 1.7 35
21:25 1025 30.27 854 25.22 23.3 73.9 24 1.6 34.8
21:30 1025 30.27 854 25.22 22.6 72.6 25 1.7 35.1
21:35 1025 30.27 854 25.22 21.8 71.3 26 1.8 35.2
21:40 1025 30.27 854 25.22 21.4 70.5 27 1.8 35.2
21:45 1025 30.27 854 25.22 20.9 69.7 28 1.9 35.4
21:50 1025 30.27 854 25.22 20.8 69.5 27 1.3 34.4
21:55 1025 30.27 854 25.22 21 69.8 27 1.7 35
22:00 1025 30.27 854 25.22 21 69.7 27 1.4 34.5
22:05 1025 30.27 854 25.22 20.8 69.4 29 2.1 35.8
22:10 1025 30.27 854 25.22 20.7 69.3 28 1.5 34.7
22:15 1025 30.27 854 25.22 20.9 69.7 27 1.3 34.4
22:20 1025 30.27 854 25.22 21.1 69.9 25 0.7 33.3
22:25 1025 30.27 854 25.22 21.4 70.4 25 0.9 33.7
22:30 1025 30.27 854 25.22 21.1 70 26 0.9 33.7
22:35 1025 30.27 854 25.22 21.2 70.1 27 1.4 34.5
22:40 1025 30.27 854 25.22 21 69.9 27 1.3 34.4
22:45 1025 30.27 854 25.22 20.9 69.5 27 1.4 34.5
22:50 1025 30.27 854 25.22 20.5 68.9 29 2.2 36
22:55 1025 30.27 854 25.22 19.8 67.6 31 2.2 36
23:00 1025 30.27 854 25.22 19.4 67 32 2.4 36.3
23:05 1025 30.27 854 25.22 18.9 66 34 2.6 36.8
23:10 1025 30.27 854 25.22 18.4 65.2 34 2.4 36.3
23:15 1025 30.27 854 25.22 18.7 65.6 32 2 35.6
23:20 1025 30.27 854 25.22 18.7 65.6 33 2.4 36.3
23:25 1025 30.27 855 25.25 18.9 66 32 1.9 35.5
23:30 1025 30.27 855 25.25 19.1 66.5 31 1.8 35.2
23:35 1025 30.27 855 25.25 18.9 66 32 1.9 35.5
23:40 1025 30.27 855 25.25 18.7 65.6 33 2.1 35.8
23:45 1025 30.27 855 25.25 18.6 65.4 32 1.8 35.3
23:50 1025 30.27 855 25.25 18.4 65 32 1.7 35.1
23:55 1025 30.27 855 25.25 18.2 64.7 33 1.8 35.2
24:00 1025 30.27 855 25.25 17.9 64.1 35 2.2 36